EW2984 Weather Reports


time (UTC)temp
C
wind
direction
speed
KPH
gust
KPH
rain 1hr
cm
rain 24hr
cm
rain mn
cm
humidity
%
barometer
mb
20260504050009 8 218 0.0 1.6 0.00 0.00 0.00 59 1015.4
20260504044514 8 221 0.0 1.6 0.00 0.00 0.00 57 1015.4
20260504043007 8 215 0.0 1.6 0.00 0.00 0.00 58 1015.4
20260504041505 8 226 0.0 1.6 0.00 0.00 0.00 59 1015.5
20260504040003 8 219 0.0 1.6 0.00 0.00 0.00 59 1015.3
20260504034503 8 208 0.0 1.6 0.00 0.00 0.00 60 1015.2
20260504033002 8 218 0.0 1.6 0.00 0.00 0.00 60 1015.2
20260504031501 8 219 0.0 1.6 0.00 0.00 0.00 58 1015.0
20260504030000 8 219 0.0 1.6 0.00 0.00 0.00 57 1015.0
20260504024601 8 215 0.0 1.6 0.00 0.00 0.00 58 1015.0
20260504023059 8 217 0.0 1.6 0.00 0.00 0.00 57 1014.9
20260504021558 9 217 0.0 0.0 0.00 0.00 0.00 56 1014.9
20260504020059 10 217 0.0 1.6 0.00 0.00 0.00 54 1015.0
20260504014603 9 217 0.0 1.6 0.00 0.00 0.00 54 1014.9
20260504013111 10 217 0.0 1.6 0.00 0.00 0.00 54 1014.7
20260504011559 10 205 0.0 0.0 0.00 0.00 0.00 52 1014.6
20260504010113 10 221 0.0 1.6 0.00 0.00 0.00 52 1014.5
20260504004556 10 221 0.0 0.0 0.00 0.00 0.00 52 1014.5
20260504003055 11 221 0.0 0.0 0.00 0.00 0.00 50 1014.3
20260504001602 12 221 0.0 1.6 0.00 0.00 0.00 47 1014.2
20260504000058 12 222 0.0 1.6 0.00 0.00 0.00 45 1014.0
20260503234554 13 194 0.0 0.0 0.00 0.00 0.00 43 1013.9
20260503233101 13 186 0.0 3.2 0.00 0.00 0.00 42 1013.6
20260503231554 13 212 0.0 4.8 0.00 0.00 0.00 42 1013.6
20260503230054 13 210 0.0 1.6 0.00 0.00 0.00 43 1013.6
20260503224552 13 218 0.0 3.2 0.00 0.00 0.00 41 1013.7
20260503223051 14 293 0.0 3.2 0.00 0.00 0.00 41 1013.6
20260503221558 14 235 1.6 4.8 0.00 0.00 0.00 40 1013.6
20260503214551 15 274 0.0 6.4 0.00 0.00 0.00 41 1013.7
20260503213050 15 205 1.6 4.8 0.00 0.00 0.00 37 1013.7
20260503211548 15 307 1.6 9.7 0.00 0.00 0.00 38 1013.6
20260503210054 15 199 0.0 11.3 0.00 0.00 0.00 35 1013.5
20260503204601 17 217 0.0 8.0 0.00 0.00 0.00 35 1013.7
20260503203043 16 212 0.0 3.2 0.00 0.00 0.00 35 1013.7
20260503201542 16 210 0.0 8.0 0.00 0.00 0.00 36 1013.9
20260503200046 15 218 0.0 8.0 0.00 0.00 0.00 36 1014.0
20260503194540 16 155 0.0 9.7 0.00 0.00 0.00 38 1014.3
20260503193039 15 192 1.6 4.8 0.00 0.00 0.00 37 1014.4
20260503191538 16 200 1.6 4.8 0.00 0.00 0.00 34 1014.5
20260503190044 16 233 0.0 6.4 0.00 0.00 0.00 40 1014.7
20260503184536 16 248 0.0 9.7 0.00 0.00 0.00 39 1014.9
20260503183030 14 210 1.6 11.3 0.00 0.00 0.00 40 1015.0
20260503181532 14 253 1.6 6.4 0.00 0.00 0.00 40 1015.0
20260503180029 13 257 0.0 9.7 0.00 0.00 0.00 41 1015.2
20260503174526 13 32 1.6 8.0 0.00 0.00 0.00 43 1015.1
20260503173022 12 37 0.0 4.8 0.00 0.00 0.00 42 1015.3
20260503171521 12 30 0.0 6.4 0.00 0.00 0.00 46 1015.4
20260503081506 5 353 0.0 1.6 0.00 0.00 0.00 68 1013.7
20260503071503 5 317 0.0 3.2 0.00 0.00 0.00 76 1013.4